Location: Dreilärchen
(47.9312°N, 8.6113°E)
Time: 00:04:22
(UTC+00:00)

USA 307 - Pass Details

Date: 26 May 2022
Orbit: 552 x 554 km, 54.0° (Epoch: 17 June)

Event Time Altitude Azimuth Distance (km) Brightness Sun altitude
Exits shadow 01:47:50 12° 262° (W) 1,696 4.9 -13.7°
Maximum altitude 01:51:34 54° 339° (NNW) 678 3.4 -13.3°
Drops below altitude 10° 01:55:41 10° 58° (ENE) 1,846 6.7 -12.9°
Sets 01:57:58 0° 63° (ENE) 2,743 7.6 -12.7°
